Location: Crescent
(42.8242°N, 73.7329°W)
Time: 06:55:52
(UTC+00:00)

Vanguard 3 - Pass Details

Date: 13 November 2024
Orbit: 507 x 3221 km, 33.4° (Epoch: 04 December)

Event Time Altitude Azimuth Distance (km) Brightness Sun altitude
Rises 23:52:55 0° 271° (W) 4,797 12.5 -25.5°
Reaches altitude 10° 23:58:29 10° 249° (WSW) 3,165 11.0 -26.5°
Maximum altitude 00:01:52 14° 222° (SW) 2,517 10.1 -27.2°
Drops below altitude 10° 00:04:39 10° 193° (SSW) 2,465 9.7 -27.7°
Enters shadow 00:06:17 - 178° (S) 2,675 9.8 -28.0°
